星链-5822 (STARLINK-5822 )

导读

STARLINK-5822是美国SpaceX星链互联网卫星项目中的一员,于2023年6月22日发射入轨。星链计划旨在构建全球卫星互联网星座,为全球偏远地区、海上用户等提供低延迟宽带互联网接入服务,STARLINK-5822的入轨进一步扩充了星链星座的在轨服务能力。

Basic Information
目录编号:
57064
目录名称:
STARLINK-5822
国际标识:
2023-088S
轨道中心:
EARTH
卫星名称:
星链-5822
卫星全名:
星链-5822 (STARLINK-5822 )
卫星状态:
在轨 (已飞行1089 天)
发射日期:
2023-06-22 UTC
国别 :
美国 (US)
星等 :
--
Orbit Information
数据来源 国际轨道数据
星历时间: 2026-06-14T09:35:37+0800
1天前
查看轨道信息
半长轴: 6861.237km
偏心率: 0.0002409
轨道倾角: 43.004°
近地点辐角 276.262°
升交点赤经 286.228°
平近点角 83.795°
近地点: 481.447km
远地点: 484.753km
周期: 94.268分钟
每日圈数: 15.275631
Detailed Information
固有亮度:
5
最大亮度:
2.4
卫星平台:
Starlink v1.5
覆盖范围:
全球
运营商:
太空探索技术公司
运营商所在国:
美国
制造商(研发单位):
太空探索技术公司
制造商所在国:
美国
使用方式:
暂无
Satellite Introduction
星链(Starlink)计划是由太空探索技术公司(SpaceX)提出的一个巨型低轨卫星互联网星座项目,计划在2019年至2024年间在太空搭建由约1.2万颗卫星组成的“星链”网络,其中1584颗将部署在地球上空550千米处的近地轨道,并从2020年开始工作。该卫星仍在工作。
2D Orbit Map
3D Orbit Map
Orbit Altitude Analysis Chart
Orbit Inclination Analysis Chart
Orbit Comprehensive Analysis Chart
View Comprehensive Chart